Regional Weather Roundup
Issued by NWS

Home | Current Version | Previous Version | Graphics & Text | Print | Product List | Glossary Off
Versions: 1 2 3 4 5 6 7 8 9 10 11 12 13 14 15 16 17 18 19 20 21 22 23 24 25 26 27 28 29 30 31 32 33 34 35 36 37 38 39 40 41 42 43 44 45 46 47 48 49 50

000
ASUS43 KMKX 251023
RWRWI

WISCONSIN REGIONAL WEATHER ROUNDUP
NATIONAL WEATHER SERVICE MILWAUKEE/SULLIVAN WI
500 AM CDT MON MAY 25 2015

NOTE: "FAIR" INDICATES FEW OR NO CLOUDS BELOW 12,000 FEET WITH NO
SIGNIFICANT WEATHER AND/OR OBSTRUCTIONS TO VISIBILITY.

WIZ001-002-006>008-014>016-023>028-251100-
NORTHWEST WISCONSIN

CITY           SKY/WX    TMP DP  RH WIND       PRES   REMARKS
SUPERIOR ARPT  RAIN      51  51  99 E7        29.77F
ASHLAND        LGT RAIN  55  55 100 NE16G22   29.78F FOG
HAYWARD        LGT RAIN  57  55  93 NE5       29.74F FOG
SIREN          DRIZZLE   57  56  97 E6        29.72F
CUMBERLAND     DRIZZLE   54  54 100 E6        29.72F
RICE LAKE      DRIZZLE   56  55  94 NE3       29.74F
CHETEK         DRIZZLE   56  56  99 E5        29.72F
LADYSMITH      LGT RAIN  57  56  97 E5        29.75F
EAU CLAIRE     LGT RAIN  57  56  96 E3        29.70F FOG
MENOMONIE      CLOUDY    57  57  98 CALM      29.71F FOG
NEW RICHMOND   CLOUDY    56  56 100 E8        29.70F
OSCEOLA        RAIN      57  57 100 E7        29.72F
$$

WIZ003>005-009-010-017-018-251100-
NORTH CENTRAL WISCONSIN

CITY           SKY/WX    TMP DP  RH WIND       PRES   REMARKS
MANITOWISH WTR HVY RAIN  56  56 100 E8        29.78F
ARBOR VITAE    RAIN      57  55  95 E8        29.78F
WOODRUFF       RAIN      57  55  95 E8        29.78F
RHINELANDER    LGT RAIN  56  54  93 SE9       29.79F
EAGLE RIVER    HVY RAIN  55  55  98 E13       29.79F
LAND O LAKES   RAIN      56  56  97 E7        29.81F
PHILLIPS       RAIN      55  55  99 E3        29.75F
TOMAHAWK       DRIZZLE   55  54  95 SE6       29.77F
MEDFORD        DRIZZLE   56  55  99 SE6       29.75F
MERRILL        DRIZZLE   56  56 100 SE9       29.78F
$$

WIZ029-030-035-036-043>047-251100-
CENTRAL WISCONSIN

CITY           SKY/WX    TMP DP  RH WIND       PRES   REMARKS
WAUSAU         LGT RAIN  57  56  96 E7        29.76F FOG
MOSINEE        DRZL/FOG  55  55 100 E8        29.78F VSB 3/4
MARSHFIELD     LGT RAIN  60  58  92 SE9       29.74F VSB 3/4
STEVENS POINT  DRIZZLE   56  56 100 E5        29.78F
WAUPACA        LGT RAIN  60  60  97 E3        29.79F
WAUTOMA        LGT RAIN  61  61 100 CALM      29.78F FOG
WISC RAPIDS    LGT RAIN  61  58  90 SE8       29.76F FOG
CAMP DOUGLAS   CLOUDY    61  61 100 SE5       29.73F FOG
$$

WIZ011>013-019>022-031-037>040-048>050-251100-
NORTHEAST WISCONSIN

CITY           SKY/WX    TMP DP  RH WIND       PRES   REMARKS
ANTIGO         FOG       54  54 100 SE12      29.80F VSB 1/2
SHAWANO        CLOUDY    59  58  96 E5        29.80F FOG
OCONTO         CLOUDY    55  55 100 E3        29.81F
STURGEON BAY   CLOUDY    54  50  87 SE7       29.84F
GREEN BAY      LGT RAIN  58  57  97 E3        29.81F FOG
MANITOWOC      NOT AVBL
APPLETON       DRIZZLE   59  59 100 SE5       29.80F
CLINTONVILLE   RAIN      57  55  94 CALM      29.80S
OSHKOSH        LGT RAIN  61  59  93 S3        29.78F FOG
$$

WIZ032>034-041-042-053>061-251100-
SOUTHWEST WISCONSIN

CITY           SKY/WX    TMP DP  RH WIND       PRES   REMARKS
LA CROSSE      CLOUDY    63  61  93 SE3       29.69F FOG
SPARTA         CLOUDY    64  63  94 S7        29.72F
VIROQUA        CLOUDY    64  64 100 S6        29.73F
BOSCOBEL       CLOUDY    63  61  93 CALM      29.72F FOG
PRAIRIE DU CHI RAIN      66  63  90 CALM      29.71F
PLATTEVILLE    CLOUDY    65  65  97 SE7       29.73F
$$

WIZ056-057-062-063-064-067-068-251100-
SOUTH CENTRAL WISCONSIN

CITY           SKY/WX    TMP DP  RH WIND       PRES   REMARKS
REEDSBURG      DRIZZLE   63  63  99 SE3       29.74F
BARABOO/DELLS  DRIZZLE   64  62  94 S5        29.75F
LONE ROCK      NOT AVBL
MINERAL POINT  RAIN      66  64  94 CALM      29.74F
MADISON        CLOUDY    66  64  93 S7        29.76F
MIDDLETON      CLOUDY    67  66  99 S6        29.76F
WATERTOWN      CLOUDY    64  64 100 SE5       29.79F
MONROE         CLOUDY    64  64 100 SE12      29.76F
JANESVILLE     CLOUDY    64  63  94 SE6       29.78F
$$

WIZ051-052-058>065-066-070>072-251100-
SOUTHEAST WISCONSIN

CITY           SKY/WX    TMP DP  RH WIND       PRES   REMARKS
MILWAUKEE      LGT RAIN  56  54  93 CALM      29.83F FOG
WAUKESHA       RAIN      61  61 100 SE3       29.83F
MILWAUKEE/TIMM RAIN      55  54  94 CALM      29.83S
RACINE         LGT RAIN  56  53  90 E3        29.84F FOG
BURLINGTON     DRZL/FOG  59  59  99 CALM      29.82S VSB 1
KENOSHA        CLOUDY    68  63  84 S8        29.82F
FOND DU LAC    LGT RAIN  65  62  90 S7        29.78F
SHEBOYGAN      CLOUDY    55  54  96 CALM      29.82S FOG
WEST BEND      CLOUDY    63  61  94 S5        29.81F FOG
JUNEAU         RAIN      64  63  96 S7        29.80F
$$

LSZ147-162-251100-
LAKE SUPERIOR

STATION/POSITION TIME  TEMP    WIND        PRES    WAVE
                       AIR SEA DIR/SP/G            HT/PER
                 (UTC) (F)     (DEG/KT/KT) (MB)    (FT/S)
W MID LAKE BUOY  0850   41 37   60/  6/  8   N/A     0
DEVILS ISLAND    0900   55      30/ 17/ 18   N/A
PORT WING        0900   48      30/ 16/ 17   N/A
SAXON HARBOR     0900   49      60/  6/ 11   N/A
$$

LMZ867-665-643>646-251100-
LAKE MICHIGAN

STATION/POSITION TIME  TEMP    WIND        PRES    WAVE
                       AIR SEA DIR/SP/G            HT/PER
                 (UTC) (F)     (DEG/KT/KT) (MB)    (FT/S)
CHAMBERS ISLAND  0900   55      80/  6/  8   N/A
N MID LAKE BUOY  0850   44 36  100/ 12/ 14   N/A     1
NORTHPORT PIER   0900   49     100/  9/ 12   N/A
SISTER BAY       0917   54      90/ 11/ 15   N/A
KEWAUNEE LAKESHO 0900   47      CALM  /  2   N/A
SHEBOYGAN LAKESH 0900   47     180/  6/  7   N/A
PORT WASHINGTON  0900   50      CALM  /  3   N/A
ATWATER BUOY     0900   48 46  150/  2/  4   N/A
MILWAUKEE LAKESH 0900   49      80/  2/  3   N/A
S MID LAKE BUOY  0850   48 38  170/ 14/ 16   N/A     1/ 3
KENOSHA   LAKESH 0800   53     140/  3/  4   N/A
$$

TC  - TEMPERATURE IN CELSIUS
VSB - VISIBILITY IN STATUTE MILES
WCI - WIND CHILL INDEX
HX  - HEAT INDEX



USA.gov is the U.S. government's official web portal to all federal, state and local government web resources and services.